Back to catalog

TITAN 3C TRANSTAGE DEB

LostHEO
NORAD 27866·DEBRIS·🇺🇸 United States

Launched Dec 21, 1965 from Cape Canaveral Space Force Station

Loading…

Next Passes (next 24 hours)

TLE

StaleSource: Space-Track

Epoch: Jul 31, 2025, 09:27 UTC

1 27866U 65108BM  25212.39418887  .00000048  00000-0  00000-0 0  9991
2 27866  26.5557 177.3990 6572473 243.7383 330.0060  2.60545382115409

Track TITAN 3C TRANSTAGE DEB in real time with AllMySat

Download on the App Store